Location: Ariel
(45.9570°N, 122.5700°W)
Time: 05:17:53
(UTC-07:00)

Altair - Pass Details

Date: 24 July 2019
Orbit: 1501 x 1683 km, 47.2° (Epoch: 20 August)

Event Time Altitude Azimuth Distance (km) Brightness Sun altitude
Rises 10:02:46 0° 188° (S) 4,678 10.1 42.6°
Reaches altitude 10° 10:06:49 10° 173° (S) 3,676 9.9 43.3°
Maximum altitude 10:13:06 21° 129° (SE) 2,897 10.3 44.3°
Drops below altitude 10° 10:19:19 10° 85° (E) 3,653 10.4 45.3°
Sets 10:23:17 0° 71° (ENE) 4,640 10.5 46.0°
